Location: Carlingford
(46.7848°N, 67.7474°W)
Time: 13:19:18
(UTC+00:00)

N. Korean satellite - Pass Details

Date: 05 December 2022
Orbit: 407 x 441 km, 97.3° (Epoch: 05 February)

Event Time Altitude Azimuth Distance (km) Brightness Sun altitude
Rises 08:58:56 0° 28° (NNE) 2,518 10.5 -30.1°
Reaches altitude 10° 09:01:31 10° 48° (NE) 1,628 9.7 -29.6°
Maximum altitude 09:03:57 18° 92° (E) 1,217 9.3 -29.2°
Drops below altitude 10° 09:06:21 10° 137° (SE) 1,600 9.7 -28.8°
Sets 09:08:52 0° 157° (SSE) 2,455 10.5 -28.4°
